Year,Month,Day,Hour,Minute,Value (Times are PST for temperature in C)
2015,04,23,10,57,7.20
2015,04,23,10,58,7.20
2015,04,23,10,59,7.20
2015,04,23,11,00,7.10
2015,04,23,11,01,7.10
2015,04,23,11,02,7.20
2015,04,23,11,03,7.20
2015,04,23,11,04,7.20
2015,04,23,11,05,7.20
2015,04,23,11,06,7.20
2015,04,23,11,07,7.30
2015,04,23,11,08,7.30
2015,04,23,11,09,7.30
2015,04,23,11,10,7.30
2015,04,23,11,11,7.30
2015,04,23,11,12,7.20
2015,04,23,11,13,7.30
2015,04,23,11,14,7.20
2015,04,23,11,15,7.30
2015,04,23,11,16,7.30
2015,04,23,11,17,7.40
2015,04,23,11,18,7.40
2015,04,23,11,19,7.50
2015,04,23,11,20,7.60
2015,04,23,11,21,7.60
2015,04,23,11,22,7.60
2015,04,23,11,23,7.60
2015,04,23,11,24,7.50
2015,04,23,11,25,7.50
2015,04,23,11,26,7.50
2015,04,23,11,27,7.50
2015,04,23,11,28,7.50
2015,04,23,11,29,7.60
2015,04,23,11,30,7.60
2015,04,23,11,31,7.70
2015,04,23,11,32,7.70
2015,04,23,11,33,7.70
2015,04,23,11,34,7.80
2015,04,23,11,35,7.80
2015,04,23,11,36,7.80
2015,04,23,11,37,7.70
2015,04,23,11,38,7.70
2015,04,23,11,39,7.70
2015,04,23,11,40,7.70
2015,04,23,11,41,7.70
2015,04,23,11,42,7.70
2015,04,23,11,43,7.70
2015,04,23,11,44,7.70
2015,04,23,11,45,7.70
2015,04,23,11,46,7.70
2015,04,23,11,47,7.70
2015,04,23,11,48,7.70
2015,04,23,11,49,7.80
2015,04,23,11,50,7.80
2015,04,23,11,51,7.90
2015,04,23,11,52,7.90
2015,04,23,11,53,7.90
2015,04,23,11,54,7.90
2015,04,23,11,55,7.90
2015,04,23,11,56,7.90
2015,04,23,11,57,8.00
2015,04,23,11,58,7.90
2015,04,23,11,59,7.90
2015,04,23,12,00,7.90
2015,04,23,12,01,7.90
2015,04,23,12,02,7.90
2015,04,23,12,03,7.90
2015,04,23,12,04,7.90
2015,04,23,12,05,7.90
2015,04,23,12,06,7.90
2015,04,23,12,07,7.90
2015,04,23,12,08,7.90
2015,04,23,12,09,7.90
2015,04,23,12,10,7.90
2015,04,23,12,11,7.90
2015,04,23,12,12,7.90
2015,04,23,12,13,7.90
2015,04,23,12,14,7.70
2015,04,23,12,15,7.50
2015,04,23,12,16,7.50
2015,04,23,12,17,7.50
2015,04,23,12,18,7.50
2015,04,23,12,19,7.50
2015,04,23,12,20,7.50
2015,04,23,12,21,7.60
2015,04,23,12,22,7.60
2015,04,23,12,23,7.60
2015,04,23,12,24,7.60
2015,04,23,12,25,7.60
2015,04,23,12,26,7.70
2015,04,23,12,27,7.60
2015,04,23,12,28,7.60
2015,04,23,12,29,7.60
2015,04,23,12,30,7.50
2015,04,23,12,31,7.50
2015,04,23,12,32,7.50
2015,04,23,12,33,7.50
2015,04,23,12,34,7.50
2015,04,23,12,35,7.60
2015,04,23,12,36,7.60
2015,04,23,12,37,7.60
2015,04,23,12,38,7.60
2015,04,23,12,39,7.60
2015,04,23,12,40,7.70
2015,04,23,12,41,7.70
2015,04,23,12,42,7.70
2015,04,23,12,43,7.70
2015,04,23,12,44,7.70
2015,04,23,12,45,7.80
2015,04,23,12,46,7.80
2015,04,23,12,47,7.80
2015,04,23,12,48,7.80
2015,04,23,12,49,7.80
2015,04,23,12,50,7.90
2015,04,23,12,51,7.90
2015,04,23,12,52,7.90
2015,04,23,12,53,7.90
2015,04,23,12,54,8.00
2015,04,23,12,55,8.10
2015,04,23,12,56,8.10
2015,04,23,12,57,8.10
2015,04,23,12,58,8.10
2015,04,23,12,59,8.10
2015,04,23,13,00,8.20
2015,04,23,13,01,8.20
2015,04,23,13,02,8.30
2015,04,23,13,03,8.30
2015,04,23,13,04,8.30
2015,04,23,13,05,8.30
2015,04,23,13,06,8.30
2015,04,23,13,07,8.30
2015,04,23,13,08,8.30
2015,04,23,13,09,8.30
2015,04,23,13,10,8.30
2015,04,23,13,11,8.30
2015,04,23,13,12,8.20
2015,04,23,13,13,8.20
2015,04,23,13,14,8.20
2015,04,23,13,15,8.20
2015,04,23,13,16,8.20
2015,04,23,13,17,8.20
2015,04,23,13,18,8.20
2015,04,23,13,19,8.20
2015,04,23,13,20,8.20
2015,04,23,13,21,8.20
2015,04,23,13,22,8.20
2015,04,23,13,23,8.20
2015,04,23,13,24,8.20
2015,04,23,13,25,8.30
2015,04,23,13,26,8.30
2015,04,23,13,27,8.30
2015,04,23,13,28,8.30
2015,04,23,13,29,8.30
2015,04,23,13,30,8.30
2015,04,23,13,31,8.40
2015,04,23,13,32,8.50
2015,04,23,13,33,8.60
2015,04,23,13,34,8.70
2015,04,23,13,35,8.70
2015,04,23,13,36,8.80
2015,04,23,13,37,8.80
2015,04,23,13,38,8.80
2015,04,23,13,39,8.90
2015,04,23,13,40,8.90
2015,04,23,13,41,8.90
2015,04,23,13,42,8.90
2015,04,23,13,43,8.90
2015,04,23,13,44,8.80
2015,04,23,13,45,8.80
2015,04,23,13,46,8.80
2015,04,23,13,47,8.80
2015,04,23,13,48,8.80
2015,04,23,13,49,8.70
2015,04,23,13,50,8.70
2015,04,23,13,51,8.70
2015,04,23,13,52,8.70
2015,04,23,13,53,8.70
2015,04,23,13,54,8.70
2015,04,23,13,55,8.70
2015,04,23,13,56,8.70
2015,04,23,13,57,8.60
2015,04,23,13,58,8.50
2015,04,23,13,59,8.50
2015,04,23,14,00,8.40
2015,04,23,14,01,8.40
2015,04,23,14,02,8.40
2015,04,23,14,03,8.40
2015,04,23,14,04,8.40
2015,04,23,14,05,8.50
2015,04,23,14,06,8.50
2015,04,23,14,07,8.50
2015,04,23,14,08,8.50
2015,04,23,14,09,8.60
2015,04,23,14,10,8.50
2015,04,23,14,11,8.50
2015,04,23,14,12,8.50
2015,04,23,14,13,8.50
2015,04,23,14,14,8.50
2015,04,23,14,15,8.50
2015,04,23,14,16,8.50
2015,04,23,14,17,8.60
2015,04,23,14,18,8.60
2015,04,23,14,19,8.60
2015,04,23,14,20,8.70
2015,04,23,14,21,8.70
2015,04,23,14,22,8.70
2015,04,23,14,23,8.80
2015,04,23,14,24,8.80
2015,04,23,14,25,8.80
2015,04,23,14,26,8.80
2015,04,23,14,27,8.80
2015,04,23,14,28,8.80
2015,04,23,14,29,8.90
2015,04,23,14,30,8.90
2015,04,23,14,31,8.90
2015,04,23,14,32,8.90
2015,04,23,14,33,8.90
2015,04,23,14,34,8.90
2015,04,23,14,35,8.90
2015,04,23,14,36,8.90
2015,04,23,14,37,8.90
2015,04,23,14,38,9.00
2015,04,23,14,39,9.00
2015,04,23,14,40,9.10
2015,04,23,14,41,9.10
2015,04,23,14,42,9.10
2015,04,23,14,43,9.10
2015,04,23,14,44,9.10
2015,04,23,14,45,9.10
2015,04,23,14,46,9.10
2015,04,23,14,47,9.10
2015,04,23,14,48,9.10
2015,04,23,14,49,9.10
2015,04,23,14,50,9.10
2015,04,23,14,51,9.10
2015,04,23,14,52,9.00
2015,04,23,14,53,9.00
2015,04,23,14,54,9.00
2015,04,23,14,55,8.90
2015,04,23,14,56,8.90
2015,04,23,14,57,8.90
2015,04,23,14,58,8.90
2015,04,23,14,59,8.90
2015,04,23,15,00,8.90
2015,04,23,15,01,8.90
2015,04,23,15,02,8.90
2015,04,23,15,03,8.90
2015,04,23,15,04,8.90
2015,04,23,15,05,9.00
2015,04,23,15,06,9.00
2015,04,23,15,07,9.10
2015,04,23,15,08,9.10
2015,04,23,15,09,9.10
2015,04,23,15,10,9.10
2015,04,23,15,11,9.10
2015,04,23,15,12,9.10
2015,04,23,15,13,9.10
2015,04,23,15,14,9.20
2015,04,23,15,15,9.20
2015,04,23,15,16,9.20
2015,04,23,15,17,9.20
2015,04,23,15,18,9.20
2015,04,23,15,19,9.20
2015,04,23,15,20,9.20
2015,04,23,15,21,9.10
2015,04,23,15,22,9.10
2015,04,23,15,23,9.20
2015,04,23,15,24,9.10
2015,04,23,15,25,9.10
2015,04,23,15,26,9.10
2015,04,23,15,27,9.00
2015,04,23,15,28,9.00
2015,04,23,15,29,9.00
2015,04,23,15,30,9.00
2015,04,23,15,31,9.00
2015,04,23,15,32,9.00
2015,04,23,15,33,9.00
2015,04,23,15,34,9.00
2015,04,23,15,35,9.00
2015,04,23,15,36,9.00
2015,04,23,15,37,9.00
2015,04,23,15,38,9.00
2015,04,23,15,39,9.00
2015,04,23,15,40,9.00
2015,04,23,15,41,9.00
2015,04,23,15,42,9.00
2015,04,23,15,43,9.00
2015,04,23,15,59,9.10
2015,04,23,16,00,9.10
2015,04,23,16,01,9.10
2015,04,23,16,02,9.10
2015,04,23,16,03,9.10
2015,04,23,16,04,9.10
2015,04,23,16,05,9.10
2015,04,23,16,06,9.20
2015,04,23,16,07,9.30
2015,04,23,16,08,9.40
2015,04,23,16,09,9.50
2015,04,23,16,10,9.60
2015,04,23,16,11,9.70
2015,04,23,16,12,9.80
2015,04,23,16,13,9.70
2015,04,23,16,14,9.80
2015,04,23,16,15,9.80
2015,04,23,16,16,9.90
2015,04,23,16,17,10.00
2015,04,23,16,18,10.10
2015,04,23,16,19,10.30
2015,04,23,16,20,10.40
2015,04,23,16,21,10.40
2015,04,23,16,22,10.40
2015,04,23,16,23,10.40
2015,04,23,16,24,10.40
2015,04,23,16,25,10.50
2015,04,23,16,26,10.40
2015,04,23,16,27,10.40
2015,04,23,16,28,10.40
2015,04,23,16,29,10.50
2015,04,23,16,30,10.60
2015,04,23,16,31,10.80
2015,04,23,16,32,10.90
2015,04,23,16,33,10.90
2015,04,23,16,34,11.00
2015,04,23,16,35,11.10
2015,04,23,16,36,11.20
2015,04,23,16,37,11.20
2015,04,23,16,38,11.30
2015,04,23,16,39,11.40
2015,04,23,16,40,11.50
2015,04,23,16,41,11.50
2015,04,23,16,42,11.60
2015,04,23,16,43,11.60
2015,04,23,16,44,11.70
2015,04,23,16,45,11.70
2015,04,23,16,46,11.70
2015,04,23,16,47,11.70
2015,04,23,16,48,11.70
2015,04,23,16,49,11.60
2015,04,23,16,50,11.50
2015,04,23,16,51,11.40
2015,04,23,16,52,11.40
2015,04,23,16,53,11.30
2015,04,23,16,54,11.30
2015,04,23,16,55,11.20
2015,04,23,16,56,11.10
2015,04,23,16,57,11.00
2015,04,23,16,58,11.00
2015,04,23,16,59,11.00
2015,04,23,17,00,11.00
2015,04,23,17,01,10.90
2015,04,23,17,02,10.90
2015,04,23,17,03,10.80
2015,04,23,17,04,10.60
2015,04,23,17,05,10.60
2015,04,23,17,06,10.50
2015,04,23,17,07,10.40
2015,04,23,17,08,10.30
2015,04,23,17,09,10.20
2015,04,23,17,10,10.20
2015,04,23,17,11,10.20
2015,04,23,17,12,10.10
2015,04,23,17,13,10.10
2015,04,23,17,14,10.10
2015,04,23,17,15,10.10
2015,04,23,17,16,10.00
2015,04,23,17,17,10.00
2015,04,23,17,18,10.00
2015,04,23,17,19,9.90
2015,04,23,17,20,9.90
2015,04,23,17,21,9.80
2015,04,23,17,22,9.70
2015,04,23,17,23,9.70
2015,04,23,17,24,9.70
2015,04,23,17,25,9.70
2015,04,23,17,26,9.70
2015,04,23,17,27,9.70
2015,04,23,17,28,9.70
2015,04,23,17,29,9.70
2015,04,23,17,30,9.70
2015,04,23,17,31,9.70
2015,04,23,17,32,9.70
2015,04,23,17,33,9.80
2015,04,23,17,34,9.80
2015,04,23,17,35,9.80
2015,04,23,17,36,9.90
2015,04,23,17,37,9.90
2015,04,23,17,38,10.00
2015,04,23,17,39,10.00
2015,04,23,17,40,10.20
2015,04,23,17,41,10.40
2015,04,23,17,42,10.50
2015,04,23,17,43,10.70
2015,04,23,17,44,10.80
2015,04,23,17,45,11.00
2015,04,23,17,46,11.10
2015,04,23,17,47,11.20
2015,04,23,17,48,11.20
2015,04,23,17,49,11.20
2015,04,23,17,50,11.30
2015,04,23,17,51,11.30
2015,04,23,17,52,11.30
2015,04,23,17,53,11.30
2015,04,23,17,54,11.20
2015,04,23,17,55,11.10
2015,04,23,17,56,11.10
2015,04,23,17,57,11.20
2015,04,23,17,58,11.20
2015,04,23,17,59,11.20
2015,04,23,18,00,11.00
2015,04,23,18,01,10.80
2015,04,23,18,02,10.70
2015,04,23,18,03,10.60
2015,04,23,18,04,10.60
2015,04,23,18,05,10.50
2015,04,23,18,06,10.40
2015,04,23,18,07,10.40
2015,04,23,18,08,10.40
2015,04,23,18,09,10.40
2015,04,23,18,10,10.40
2015,04,23,18,11,10.30
2015,04,23,18,12,10.30
2015,04,23,18,13,10.20
2015,04,23,18,14,10.10
2015,04,23,18,15,10.00
2015,04,23,18,16,10.00
2015,04,23,18,17,9.90
2015,04,23,18,18,9.90
2015,04,23,18,19,9.80
2015,04,23,18,20,9.80
2015,04,23,18,21,9.70
2015,04,23,18,22,9.70
2015,04,23,18,23,9.70
2015,04,23,18,24,9.70
2015,04,23,18,25,9.70
2015,04,23,18,26,9.70
2015,04,23,18,27,9.70
2015,04,23,18,28,9.70
2015,04,23,18,29,9.70
2015,04,23,18,30,9.70
2015,04,23,18,31,9.80
2015,04,23,18,32,9.80
2015,04,23,18,33,9.90
2015,04,23,18,34,10.00
2015,04,23,18,35,10.10
2015,04,23,18,36,10.10
2015,04,23,18,37,10.20
2015,04,23,18,38,10.20
2015,04,23,18,39,10.20
2015,04,23,18,40,10.20
2015,04,23,18,41,10.30
2015,04,23,18,42,10.40
2015,04,23,18,43,10.40
2015,04,23,18,44,10.40
2015,04,23,18,45,10.40
2015,04,23,18,46,10.40
2015,04,23,18,47,10.40
2015,04,23,18,48,10.30
2015,04,23,18,49,10.30
2015,04,23,18,50,10.30
2015,04,23,18,51,10.20
2015,04,23,18,52,10.10
2015,04,23,18,53,10.10
2015,04,23,18,54,10.00
2015,04,23,18,55,10.00
2015,04,23,18,56,9.90
2015,04,23,18,57,9.80
2015,04,23,18,58,9.70
2015,04,23,18,59,9.60
2015,04,23,19,00,9.60
2015,04,23,19,01,9.50
2015,04,23,19,02,9.40
2015,04,23,19,03,9.40
2015,04,23,19,04,9.40
2015,04,23,19,05,9.30
2015,04,23,19,06,9.30
2015,04,23,19,07,9.30
2015,04,23,19,08,9.30
2015,04,23,19,09,9.30
2015,04,23,19,10,9.30
2015,04,23,19,11,9.30
2015,04,23,19,12,9.30
2015,04,23,19,13,9.30
2015,04,23,19,14,9.30
2015,04,23,19,15,9.20
2015,04,23,19,16,9.20
2015,04,23,19,17,9.20
2015,04,23,19,18,9.30
2015,04,23,19,19,9.20
2015,04,23,19,20,9.20
2015,04,23,19,21,9.20
2015,04,23,19,22,9.20
2015,04,23,19,23,9.20
2015,04,23,19,24,9.20
2015,04,23,19,25,9.20
2015,04,23,19,26,9.20
2015,04,23,19,27,9.10
2015,04,23,19,28,9.10
2015,04,23,19,29,9.10
2015,04,23,19,30,9.10
2015,04,23,19,31,9.00
2015,04,23,19,32,8.90
2015,04,23,19,33,8.80
2015,04,23,19,34,8.70
2015,04,23,19,35,8.70
2015,04,23,19,36,8.60
2015,04,23,19,37,8.50
2015,04,23,19,38,8.50
2015,04,23,19,39,8.40
2015,04,23,19,40,8.40
2015,04,23,19,41,8.30
2015,04,23,19,42,8.30
2015,04,23,19,43,8.20
2015,04,23,19,44,8.20
2015,04,23,19,45,8.10
2015,04,23,19,46,8.10
2015,04,23,19,47,8.00
2015,04,23,19,48,7.90
2015,04,23,19,49,7.90
2015,04,23,19,50,7.90
2015,04,23,19,51,7.90
2015,04,23,19,52,7.90
2015,04,23,19,53,7.90
2015,04,23,19,54,7.90
2015,04,23,19,55,7.90
2015,04,23,19,56,7.90
2015,04,23,19,57,7.90
2015,04,23,19,58,7.90
